Terminal Aerodrome Forecast
Issued by NWS

Home | Current Version | Previous Version | Text Only | Print | Product List | Glossary On
Versions: 1 2 3 4 5 6 7 8 9 10 11 12 13 14 15 16 17 18 19 20 21 22 23 24 25 26 27 28 29 30 31 32 33 34 35 36 37
000
FTUS43 KGLD 280506 AAB
TAFMCK
TAF AMD
KMCK 280506Z 2805/2824 12010KT 6SM BR BKN007
     FM280600 28025G35KT 2SM +TSRA BKN015CB
      TEMPO 2806/2808 4SM -TSRA BKN035CB
     FM280800 VRB06KT 6SM BR VCTS SCT015 BKN040CB
     FM281000 03006KT 3SM BR OVC015
      TEMPO 2810/2814 1SM BR OVC008
     FM281700 36008KT P6SM BKN025=

USA.gov is the U.S. government's official web portal to all federal, state and local government web resources and services.